Location: Recife
(8.0585°S, 34.8848°W)
Time: 11:19:05
(UTC-03:00)

Altair - Pass Details

Date: 16 April 2026
Orbit: 1501 x 1682 km, 47.2° (Epoch: 20 May)

Event Time Altitude Azimuth Distance (km) Brightness Sun altitude
Rises 09:32:02 0° 234° (SW) 4,883 9.8 57.6°
Reaches altitude 10° 09:35:21 10° 240° (WSW) 3,912 9.4 58.3°
Maximum altitude 09:44:43 44° 308° (NW) 2,188 8.9 60.2°
Drops below altitude 10° 09:54:10 10° 17° (NNE) 3,926 10.2 62.0°
Sets 09:57:32 0° 24° (NNE) 4,902 10.5 62.6°
